Content
SEND FEEDBACK

Daily
Averages
Monthly
Summary
United States of America

COLFAX, CALIFORNIA


Home > North America > United States > California
Elevation: 2307 feet     Latitude: 39 06N     Longitude: 120 58W

WEATHER
 
SELECT A DAY
Number of Records: 59,226;   Date Range: 9/21/11 - 7/6/14
 
SHARE

PRINT THIS DATA

[ ← Previous Day ]
WEATHER ALMANAC - FEBRUARY 13, 2013
[ Next Day → ]
[ °C ]   °F
Weather ElementAverageHighLow
Temperature48.2 °F57.2 °F (12:35 pm)35.6 °F (4:55 am)
Dewpoint32.1 °F39.2 °F (4:55 pm)24.8 °F (9:55 pm)
Humidity56.3 %87 % (4:55 am)31 % (9:55 pm)
Barometer30.26 in30.30 in (12:35 am)30.22 in (4:15 pm)
Wind Speed2.4 mph8.1 mph (12:55 pm)
Weather ElementAverage
Visibility9.7 mi
Wind DirectionENE (82.8 °)

Weather ElementTotal
Precipitation---
Heating Degree Days18.6 (Base 65)
Averaged from 69 records on February 13, 2013
WEATHER CONDITIONS BREAKOUT
WIND DIRECTION BREAKOUT
WEATHER BY HOUR - FEBRUARY 13, 2013
[ °C ]   °F
Local TimeTemperatureDewpointHumidityBarometerVisibilityWind DirectionWind SpeedGust SpeedPrecipitationEventsConditions
12:35 AM39.2 °F32.0 °F75 %30.30 in10.0 miCalmClear
12:55 AM39.2 °F32.0 °F75 %30.30 in10.0 miCalmClear
1:15 AM41.0 °F32.0 °F70 %30.30 in10.0 miNW (310°)5.8 mphClear
1:35 AM39.2 °F32.0 °F75 %30.30 in10.0 miCalmClear
1:55 AM39.2 °F32.0 °F75 %30.30 in10.0 miCalmClear
2:15 AM39.2 °F32.0 °F75 %30.30 in10.0 miCalmClear
2:35 AM39.2 °F32.0 °F75 %30.30 in10.0 miCalmClear
2:55 AM39.2 °F32.0 °F75 %30.29 in10.0 miCalmClear
3:15 AM39.2 °F32.0 °F75 %30.29 in10.0 miCalmClear
3:35 AM39.2 °F32.0 °F75 %30.28 in8.0 miCalmClear
4:15 AM37.4 °F32.0 °F81 %30.28 in7.0 miCalmClear
4:35 AM37.4 °F32.0 °F81 %30.28 in7.0 miCalmClear
4:55 AM35.6 °F32.0 °F87 %30.28 in7.0 miCalmClear
5:15 AM37.4 °F32.0 °F81 %30.28 in7.0 miCalmClear
5:35 AM35.6 °F32.0 °F87 %30.28 in7.0 miCalmClear
5:55 AM35.6 °F32.0 °F87 %30.28 in7.0 miCalmClear
6:15 AM37.4 °F32.0 °F81 %30.28 in9.0 miCalmClear
6:35 AM37.4 °F32.0 °F81 %30.28 in10.0 miCalmClear
6:55 AM39.2 °F30.2 °F70 %30.28 in10.0 miCalmClear
7:15 AM39.2 °F28.4 °F65 %30.29 in10.0 miCalmClear
7:35 AM41.0 °F28.4 °F61 %30.29 in10.0 miCalmClear
7:55 AM42.8 °F30.2 °F61 %30.29 in10.0 miCalmClear
8:15 AM44.6 °F30.2 °F57 %30.29 in10.0 miCalmClear
8:35 AM44.6 °F32.0 °F61 %30.28 in10.0 miCalmClear
8:55 AM46.4 °F32.0 °F57 %30.29 in10.0 miCalmClear
9:15 AM46.4 °F30.2 °F53 %30.29 in10.0 miWNW (300°)3.5 mphClear
9:35 AM46.4 °F32.0 °F57 %30.29 in10.0 miWNW (290°)3.5 mphClear
9:55 AM46.4 °F32.0 °F57 %30.30 in10.0 miCalmClear
10:15 AM48.2 °F32.0 °F54 %30.30 in10.0 miWest (280°)4.6 mphClear
10:35 AM48.2 °F32.0 °F54 %30.30 in10.0 miCalmClear
10:55 AM51.8 °F26.6 °F38 %30.30 in10.0 miCalmClear
11:15 AM53.6 °F28.4 °F38 %30.30 in10.0 miCalmClear
11:35 AM53.6 °F28.4 °F38 %30.29 in10.0 miWest (280°)4.6 mphClear
11:55 AM55.4 °F32.0 °F41 %30.28 in10.0 miWest (270°)3.5 mphClear
12:15 PM55.4 °F32.0 °F41 %30.27 in10.0 miCalmClear
12:35 PM57.2 °F33.8 °F41 %30.26 in10.0 miWSW (250°)5.8 mphClear
12:55 PM57.2 °F33.8 °F41 %30.26 in10.0 miWest (260°)8.1 mphClear
1:15 PM55.4 °F35.6 °F47 %30.25 in10.0 miCalmClear
1:35 PM55.4 °F35.6 °F47 %30.24 in10.0 miWest (280°)6.9 mphClear
1:55 PM55.4 °F35.6 °F47 %30.24 in10.0 miWest (260°)5.8 mphClear
2:15 PM55.4 °F37.4 °F51 %30.23 in10.0 miWNW (300°)5.8 mphClear
2:35 PM55.4 °F37.4 °F51 %30.23 in10.0 miWest (280°)8.1 mphClear
2:55 PM55.4 °F37.4 °F51 %30.23 in10.0 miWest (270°)5.8 mphClear
3:15 PM55.4 °F37.4 °F51 %30.23 in9.0 miWNW (290°)5.8 mphClear
3:35 PM55.4 °F37.4 °F51 %30.23 in10.0 miWest (280°)6.9 mphClear
3:55 PM55.4 °F37.4 °F51 %30.23 in10.0 miWNW (290°)3.5 mphClear
4:15 PM55.4 °F37.4 °F51 %30.22 in10.0 miCalmClear
4:35 PM55.4 °F37.4 °F51 %30.22 in10.0 miCalmClear
4:55 PM55.4 °F39.2 °F54 %30.22 in10.0 miCalmClear
5:15 PM55.4 °F37.4 °F51 %30.22 in10.0 miCalmClear
5:35 PM53.6 °F39.2 °F58 %30.23 in10.0 miNW (320°)3.5 mphClear
5:55 PM50.0 °F39.2 °F66 %30.23 in10.0 miCalmClear
6:15 PM50.0 °F39.2 °F66 %30.23 in10.0 miCalmClear
6:35 PM48.2 °F39.2 °F71 %30.23 in10.0 miCalmClear
6:55 PM48.2 °F37.4 °F66 %30.23 in10.0 miCalmClear
7:15 PM48.2 °F32.0 °F54 %30.24 in10.0 miNE (40°)4.6 mphClear
7:35 PM50.0 °F30.2 °F47 %30.24 in10.0 miCalmClear
7:55 PM53.6 °F28.4 °F38 %30.24 in10.0 miNNE (20°)3.5 mphClear
8:15 PM53.6 °F26.6 °F35 %30.24 in10.0 miNorth (10°)4.6 mphClear
8:35 PM53.6 °F26.6 °F35 %30.24 in10.0 miNorth (360°)4.6 mphClear
8:55 PM53.6 °F26.6 °F35 %30.24 in10.0 miNNE (20°)3.5 mphClear
9:15 PM53.6 °F26.6 °F35 %30.24 in10.0 miENE (60°)6.9 mphClear
9:55 PM55.4 °F24.8 °F31 %30.24 in10.0 miENE (60°)4.6 mphClear
10:15 PM55.4 °F24.8 °F31 %30.25 in10.0 miENE (60°)5.8 mphClear
10:35 PM55.4 °F26.6 °F33 %30.25 in10.0 miNE (50°)8.1 mphClear
10:55 PM55.4 °F26.6 °F33 %30.25 in10.0 miENE (60°)8.1 mphClear
11:15 PM55.4 °F26.6 °F33 %30.25 in10.0 miNE (50°)8.1 mphClear
11:35 PM55.4 °F26.6 °F33 %30.25 in10.0 miENE (60°)8.1 mphClear
11:55 PM53.6 °F26.6 °F35 %30.25 in10.0 miNE (50°)5.8 mphClear
Hourly data recorded from KGOO, located miles away from Colfax, California







STORIES FROM OUR PARTNERS